Temp
-13 -13 -13 -13 -13 -13 -13 -13 -12 -12 -12 -12 -12 -12 -12 -12 -11 -11 -11 -10 -10 -10 -10 -10 -10 -11 -11 -11 -11 -11 -11 -11 -11 -11 -11 -11 -11 -11 -11 -11 -11 -11 -11 -11 -11 -11 -11
-13 -13 -13 -13 -13 -13 -13 -12 -12 -12 -12 -12 -12 -12 -12 -12 -11 -11 -11 -10 -10 -10 -10 -10 -10 -11 -11 -11 -11 -11 -11 -11 -11 -11 -11 -11 -11 -11 -11 -11 -11 -11 -11 -11 -11 -11 -11
-13 -13 -13 -13 -13 -13 -13 -13 -13 -12 -12 -12 -12 -12 -12 -12 -11 -11 -11 -10 -10 -10 -10 -11 -11 -11 -11 -11 -11 -11 -11 -11 -11 -11 -11 -11 -11 -11 -11 -11 -11 -11 -11 -11 -11 -11 -11
-12 -13 -13 -13 -13 -13 -13 -13 -12 -12 -12 -12 -12 -12 -12 -12 -11 -11 -11 -11 -10 -10 -10 -11 -11 -11 -11 -11 -12 -12 -12 -12 -12 -12 -12 -12 -12 -12 -12 -12 -11 -11 -11 -11 -11 -11 -11
-12 -12 -12 -12 -12 -12 -12 -12 -12 -12 -12 -12 -12 -12 -12 -11 -11 -11 -11 -11 -11 -11 -11 -11 -11 -12 -12 -12 -12 -12 -12 -12 -12 -12 -12 -12 -12 -12 -12 -12 -12 -12 -12 -12 -12 -12 -12
-12 -12 -12 -12 -12 -12 -12 -12 -12 -12 -12 -12 -12 -12 -12 -11 -11 -11 -11 -11 -11 -11 -11 -11 -12 -12 -12 -12 -12 -12 -12 -12 -12 -12 -12 -12 -12 -12 -12 -12 -12 -12 -12 -12 -12 -12 -12
-13 -13 -13 -13 -12 -12 -12 -12 -12 -12 -12 -12 -12 -12 -12 -12 -12 -12 -12 -11 -11 -11 -12 -12 -12 -12 -13 -13 -13 -13 -13 -13 -13 -13 -13 -13 -13 -13 -12 -12 -12 -12 -12 -12 -12 -12 -12
-13 -13 -13 -13 -13 -13 -13 -12 -12 -12 -13 -13 -13 -13 -13 -12 -12 -12 -12 -12 -12 -12 -12 -13 -13 -13 -13 -13 -13 -13 -13 -13 -13 -13 -13 -13 -13 -13 -13 -13 -13 -13 -13 -13 -12 -12 -12
-13 -13 -13 -13 -13 -13 -13 -13 -13 -13 -13 -13 -13 -13 -13 -13 -13 -13 -12 -13 -13 -13 -13 -13 -13 -13 -14 -14 -14 -14 -14 -14 -14 -14 -14 -13 -13 -13 -13 -13 -13 -13 -13 -13 -12 -12 -12
-15 -14 -14 -14 -14 -13 -14 -14 -14 -14 -13 -13 -13 -13 -13 -13 -13 -13 -13 -13 -13 -14 -14 -14 -14 -14 -14 -14 -14 -14 -14 -14 -14 -14 -14 -14 -14 -14 -14 -14 -13 -13 -13 -13 -13 -13 -12
-15 -15 -15 -14 -14 -14 -14 -14 -14 -14 -14 -14 -14 -14 -14 -14 -14 -14 -14 -14 -14 -14 -14 -14 -14 -14 -15 -15 -15 -15 -15 -15 -15 -15 -15 -14 -14 -14 -14 -14 -14 -14 -14 -13 -13 -13 -13
-15 -15 -15 -15 -15 -14 -14 -14 -14 -14 -15 -15 -15 -15 -15 -15 -14 -15 -15 -15 -15 -15 -14 -14 -15 -15 -15 -15 -15 -15 -15 -15 -15 -15 -15 -15 -14 -14 -14 -14 -14 -14 -14 -14 -14 -13 -13
-16 -16 -16 -16 -15 -15 -15 -15 -15 -15 -15 -15 -15 -15 -15 -15 -15 -15 -15 -15 -15 -15 -15 -15 -15 -15 -15 -16 -16 -16 -16 -15 -15 -15 -15 -15 -15 -15 -15 -15 -15 -15 -15 -14 -14 -14 -13
-16 -16 -16 -16 -16 -16 -16 -16 -16 -16 -16 -16 -16 -16 -16 -16 -16 -16 -16 -16 -15 -15 -15 -16 -16 -16 -16 -16 -16 -16 -16 -16 -16 -16 -16 -15 -15 -15 -15 -15 -15 -15 -15 -15 -15 -14 -14
-17 -17 -17 -17 -17 -17 -17 -17 -17 -16 -17 -17 -17 -17 -17 -16 -16 -16 -16 -15 -15 -16 -16 -16 -17 -17 -16 -16 -16 -16 -16 -16 -16 -16 -16 -16 -16 -16 -16 -16 -16 -15 -16 -16 -16 -15 -15
-17 -18 -18 -18 -18 -17 -17 -17 -17 -17 -17 -17 -17 -17 -17 -17 -17 -17 -16 -15 -16 -16 -17 -17 -17 -17 -17 -17 -17 -16 -16 -16 -17 -17 -17 -16 -16 -16 -16 -16 -16 -16 -16 -16 -16 -16 -15
-17 -17 -17 -17 -17 -17 -18 -18 -18 -18 -18 -18 -18 -18 -18 -18 -18 -17 -15 -15 -17 -17 -17 -17 -17 -17 -17 -17 -17 -17 -16 -16 -16 -17 -17 -17 -17 -16 -16 -16 -16 -16 -16 -16 -17 -16 -15
-18 -18 -18 -18 -18 -18 -17 -17 -17 -17 -18 -18 -18 -18 -18 -18 -17 -16 -16 -17 -17 -18 -18 -17 -17 -17 -17 -18 -17 -17 -16 -17 -17 -17 -17 -17 -17 -17 -17 -16 -16 -16 -16 -17 -17 -16 -16
-17 -17 -17 -17 -17 -17 -17 -18 -18 -17 -18 -18 -17 -18 -18 -18 -17 -17 -17 -17 -18 -18 -18 -18 -18 -17 -18 -18 -18 -17 -17 -17 -17 -17 -17 -18 -17 -17 -17 -17 -16 -17 -17 -18 -18 -17 -15
-18 -18 -18 -18 -18 -18 -18 -18 -18 -18 -18 -18 -18 -18 -17 -17 -17 -17 -18 -18 -18 -18 -18 -18 -18 -18 -18 -18 -18 -17 -17 -18 -18 -18 -18 -18 -18 -17 -17 -17 -17 -17 -18 -17 -17 -16 -16
-18 -18 -18 -19 -18 -18 -18 -18 -19 -18 -18 -18 -18 -18 -18 -17 -17 -18 -18 -18 -18 -18 -19 -19 -18 -18 -19 -19 -18 -18 -18 -19 -19 -19 -19 -19 -18 -18 -18 -18 -18 -18 -17 -17 -17 -17 -17
-19 -19 -19 -19 -19 -19 -19 -19 -19 -19 -19 -19 -19 -18 -18 -18 -18 -18 -18 -17 -17 -18 -18 -18 -18 -19 -19 -18 -18 -19 -20 -19 -19 -19 -19 -19 -18 -18 -18 -18 -18 -18 -17 -17 -17 -17 -17
-20 -20 -20 -20 -20 -20 -20 -20 -20 -20 -20 -20 -20 -19 -19 -19 -19 -19 -18 -18 -18 -19 -18 -18 -19 -19 -18 -18 -20 -20 -20 -20 -20 -20 -20 -20 -19 -19 -18 -19 -20 -19 -16 -18 -19 -18 -19
-21 -21 -21 -21 -20 -20 -21 -21 -21 -21 -21 -22 -20 -20 -20 -19 -19 -19 -19 -19 -19 -19 -19 -19 -20 -19 -20 -21 -21 -21 -21 -21 -21 -20 -20 -20 -20 -21 -20 -21 -21 -17 -18 -19 -19 -20 -21
-23 -23 -22 -21 -22 -21 -21 -21 -21 -21 -22 -22 -22 -22 -21 -21 -21 -20 -20 -20 -20 -20 -20 -19 -20 -20 -21 -21 -21 -21 -21 -22 -21 -21 -21 -21 -22 -22 -22 -21 -21 -19 -18 -20 -21 -20 -21
-24 -23 -23 -22 -22 -22 -22 -22 -22 -22 -22 -22 -22 -22 -22 -23 -21 -21 -21 -21 -20 -20 -21 -20 -21 -22 -22 -22 -22 -22 -22 -21 -22 -21 -21 -22 -22 -22 -22 -22 -22 -19 -20 -21 -22 -20 -20
-25 -25 -26 -24 -23 -22 -22 -23 -23 -24 -23 -22 -22 -22 -23 -24 -23 -23 -23 -22 -22 -22 -22 -22 -22 -22 -22 -22 -23 -23 -23 -22 -23 -21 -21 -22 -22 -22 -22 -23 -22 -21 -21 -22 -22 -20 -22
-26 -26 -26 -26 -26 -26 -24 -24 -23 -23 -23 -23 -23 -24 -24 -24 -24 -23 -23 -24 -23 -23 -23 -22 -23 -22 -23 -23 -24 -23 -24 -23 -23 -22 -22 -22 -23 -23 -23 -23 -24 -22 -22 -22 -22 -22 -23
-28 -29 -28 -28 -27 -27 -26 -27 -26 -25 -25 -24 -23 -23 -23 -23 -23 -24 -24 -24 -24 -24 -24 -24 -24 -24 -24 -24 -24 -24 -24 -24 -24 -24 -23 -24 -23 -24 -24 -24 -24 -24 -23 -23 -23 -23 -22
Height
5723 5725 5726 5729 5731 5733 5736 5739 5741 5743 5746 5749 5752 5755 5758 5761 5764 5767 5771 5775 5779 5783 5787 5791 5795 5798 5802 5806 5809 5813 5815 5818 5820 5823 5825 5827 5829 5830 5831 5833 5834 5835 5835 5836 5837 5838 5838
5722 5723 5725 5727 5729 5731 5733 5735 5738 5740 5743 5746 5748 5751 5755 5757 5760 5763 5767 5770 5774 5779 5782 5786 5791 5794 5797 5801 5804 5808 5810 5813 5816 5818 5820 5822 5824 5825 5826 5828 5829 5830 5831 5831 5831 5832 5834
5722 5722 5723 5725 5727 5728 5730 5732 5734 5737 5740 5743 5745 5748 5751 5754 5757 5760 5763 5767 5771 5775 5779 5783 5786 5789 5792 5796 5799 5802 5805 5808 5810 5812 5814 5816 5818 5820 5821 5823 5824 5825 5826 5826 5826 5827 5828
5721 5721 5722 5723 5725 5726 5727 5729 5731 5734 5736 5739 5741 5744 5748 5751 5753 5757 5760 5763 5767 5770 5774 5778 5781 5784 5787 5790 5793 5795 5798 5801 5804 5806 5808 5810 5812 5814 5815 5817 5818 5819 5820 5821 5821 5821 5822
5719 5721 5721 5722 5723 5724 5725 5727 5729 5730 5733 5735 5738 5741 5744 5748 5750 5753 5756 5759 5762 5765 5768 5772 5775 5778 5781 5784 5786 5789 5792 5795 5798 5800 5802 5804 5806 5808 5809 5810 5812 5813 5815 5815 5816 5816 5817
5718 5718 5719 5720 5722 5723 5723 5724 5726 5728 5729 5732 5734 5737 5740 5743 5746 5749 5751 5753 5756 5760 5763 5765 5768 5773 5775 5778 5780 5783 5786 5788 5791 5793 5795 5798 5799 5801 5803 5804 5806 5806 5807 5809 5810 5811 5811
5717 5717 5717 5717 5719 5720 5721 5721 5722 5724 5726 5727 5730 5732 5735 5738 5741 5743 5746 5748 5752 5754 5756 5759 5762 5765 5768 5770 5773 5776 5779 5781 5784 5786 5788 5790 5792 5794 5795 5796 5798 5799 5800 5801 5803 5804 5805
5716 5716 5716 5716 5716 5717 5718 5718 5720 5721 5722 5724 5726 5728 5731 5733 5735 5737 5739 5741 5744 5748 5750 5752 5755 5757 5761 5763 5766 5769 5772 5775 5777 5779 5781 5783 5784 5786 5788 5789 5790 5792 5793 5793 5794 5796 5797
5713 5713 5714 5714 5714 5713 5714 5715 5716 5717 5719 5721 5722 5724 5726 5728 5729 5731 5733 5736 5738 5741 5743 5746 5748 5750 5753 5756 5758 5761 5764 5766 5769 5771 5773 5774 5777 5778 5780 5781 5783 5784 5785 5785 5785 5785 5786
5706 5707 5708 5709 5709 5710 5710 5711 5712 5713 5714 5716 5718 5720 5721 5723 5725 5726 5728 5730 5731 5733 5736 5739 5740 5742 5745 5749 5750 5754 5757 5760 5761 5763 5765 5766 5769 5770 5772 5773 5774 5775 5776 5775 5775 5775 5776
5699 5701 5702 5703 5703 5704 5705 5706 5708 5709 5709 5710 5712 5713 5716 5717 5719 5721 5723 5724 5726 5728 5730 5733 5734 5737 5738 5741 5746 5746 5748 5751 5753 5755 5758 5759 5760 5762 5763 5764 5765 5767 5766 5765 5764 5764 5764
5690 5692 5693 5694 5696 5697 5698 5699 5701 5702 5703 5705 5706 5707 5708 5710 5712 5714 5715 5717 5719 5722 5721 5725 5728 5729 5731 5734 5736 5739 5741 5743 5744 5747 5749 5750 5752 5753 5754 5754 5755 5756 5756 5754 5753 5753 5751
5680 5681 5683 5684 5685 5687 5688 5690 5692 5693 5695 5697 5698 5700 5701 5702 5704 5705 5707 5709 5712 5711 5717 5719 5721 5722 5725 5727 5728 5730 5732 5733 5735 5737 5739 5740 5741 5742 5743 5744 5744 5744 5744 5742 5741 5740 5740
5669 5670 5671 5673 5675 5676 5677 5679 5681 5682 5684 5687 5689 5691 5692 5693 5695 5696 5698 5700 5701 5705 5709 5711 5712 5714 5717 5717 5718 5720 5721 5723 5725 5726 5726 5727 5729 5731 5732 5732 5732 5731 5732 5732 5726 5726 5726
5657 5659 5660 5662 5663 5665 5666 5669 5670 5671 5673 5675 5677 5679 5681 5682 5685 5686 5688 5687 5693 5697 5699 5702 5703 5703 5706 5707 5709 5709 5710 5713 5714 5716 5717 5715 5715 5718 5718 5719 5719 5720 5719 5721 5715 5713 5711
5642 5644 5646 5648 5650 5652 5654 5656 5658 5659 5660 5662 5664 5667 5669 5670 5672 5673 5674 5677 5681 5686 5688 5690 5691 5691 5693 5696 5697 5698 5699 5701 5703 5704 5703 5702 5702 5704 5704 5705 5706 5707 5708 5706 5705 5700 5698
5628 5630 5631 5633 5635 5637 5639 5641 5643 5646 5646 5649 5651 5652 5655 5656 5657 5658 5660 5665 5671 5673 5675 5676 5677 5678 5679 5681 5682 5684 5684 5689 5691 5691 5691 5690 5690 5691 5691 5693 5694 5693 5692 5694 5694 5689 5685
5612 5614 5616 5619 5622 5623 5625 5627 5629 5631 5633 5633 5637 5638 5642 5643 5644 5645 5649 5655 5659 5661 5662 5662 5663 5665 5665 5667 5667 5668 5671 5675 5677 5678 5678 5677 5673 5672 5678 5677 5677 5678 5680 5682 5679 5679 5674
5596 5599 5601 5603 5605 5607 5610 5613 5614 5616 5619 5617 5619 5623 5625 5628 5628 5632 5637 5641 5643 5646 5648 5649 5649 5651 5652 5651 5650 5655 5658 5661 5660 5663 5662 5663 5658 5657 5657 5661 5664 5665 5667 5666 5664 5664 5660
5579 5581 5584 5587 5590 5593 5595 5596 5598 5599 5604 5600 5603 5605 5610 5613 5617 5619 5620 5625 5628 5631 5630 5630 5633 5634 5637 5638 5640 5637 5640 5640 5643 5646 5646 5645 5644 5643 5643 5645 5645 5646 5649 5648 5648 5646 5649
5559 5562 5566 5568 5570 5576 5579 5581 5582 5582 5585 5583 5585 5590 5592 5595 5600 5603 5603 5607 5610 5610 5612 5614 5615 5620 5621 5619 5622 5620 5621 5623 5626 5627 5627 5626 5627 5628 5628 5627 5624 5626 5631 5633 5632 5634 5629
5537 5542 5546 5549 5551 5558 5563 5563 5566 5565 5563 5561 5566 5573 5576 5579 5582 5584 5586 5595 5594 5596 5595 5598 5599 5602 5601 5602 5602 5605 5604 5604 5604 5606 5607 5608 5609 5610 5611 5610 5608 5608 5614 5612 5612 5617 5619
5514 5520 5522 5525 5531 5535 5537 5541 5545 5547 5543 5543 5550 5555 5556 5563 5565 5567 5575 5580 5580 5576 5580 5582 5584 5582 5585 5593 5586 5583 5584 5585 5585 5587 5588 5589 5589 5589 5591 5591 5589 5589 5605 5598 5599 5599 5601
5493 5498 5503 5503 5508 5514 5518 5524 5527 5531 5529 5524 5529 5534 5535 5543 5541 5554 5556 5559 5562 5561 5564 5568 5565 5567 5577 5571 5569 5568 5568 5569 5570 5572 5572 5573 5573 5571 5572 5571 5565 5585 5589 5583 5583 5584 5584
5468 5473 5478 5484 5487 5490 5497 5504 5508 5513 5514 5510 5510 5514 5516 5518 5524 5530 5536 5539 5542 5544 5546 5551 5555 5557 5552 5553 5552 5551 5552 5552 5555 5557 5560 5561 5559 5556 5554 5551 5556 5565 5572 5576 5567 5564 5567
5439 5447 5452 5457 5462 5471 5477 5483 5488 5490 5492 5493 5494 5496 5495 5497 5503 5513 5512 5518 5524 5525 5528 5536 5540 5536 5536 5536 5535 5531 5532 5537 5537 5543 5546 5544 5544 5541 5537 5530 5529 5557 5562 5555 5551 5534 5560
5419 5424 5428 5433 5439 5447 5453 5460 5465 5473 5473 5470 5471 5475 5474 5475 5485 5489 5493 5498 5500 5506 5507 5516 5520 5520 5518 5518 5517 5516 5515 5519 5516 5524 5532 5527 5525 5520 5520 5511 5509 5537 5542 5535 5519 5534 5537
5393 5399 5405 5412 5419 5425 5429 5433 5438 5446 5451 5449 5452 5455 5454 5455 5464 5468 5473 5479 5484 5489 5489 5497 5499 5498 5500 5499 5498 5498 5496 5498 5497 5507 5509 5507 5505 5504 5502 5493 5488 5519 5513 5509 5517 5508 5505
5371 5374 5380 5388 5398 5403 5410 5414 5417 5422 5424 5424 5433 5436 5436 5434 5443 5450 5455 5467 5464 5467 5471 5471 5474 5477 5480 5480 5478 5477 5476 5477 5479 5478 5493 5479 5484 5487 5481 5474 5478 5483 5487 5487 5488 5488 5485
Wind_Speed
10 10 11 13 15 16 16 18 19 19 21 21 22 22 24 24 25 26 26 27 26 26 26 26 28 30 30 30 30 29 28 27 27 26 25 24 23 22 20 19 18 17 15 14 14 14 14
11 12 12 13 13 15 17 18 19 20 21 22 22 23 23 24 25 26 26 27 26 25 25 26 28 31 31 32 31 31 30 29 28 27 25 25 24 24 22 21 20 19 19 18 17 17 17
9 10 14 17 15 17 16 17 19 20 21 22 22 22 23 24 25 26 26 25 25 24 25 26 28 31 33 33 33 33 33 32 31 29 27 27 26 26 24 23 21 21 21 21 19 20 20
9 11 12 14 15 16 16 18 18 20 20 21 21 22 23 24 24 24 24 23 22 22 23 25 28 31 34 35 35 36 35 35 33 31 29 28 28 27 25 25 23 22 22 21 21 20 18
9 11 14 15 16 17 17 19 19 18 20 20 21 22 23 24 25 24 23 23 22 23 24 26 29 32 36 36 38 37 37 36 34 32 30 30 29 28 28 27 25 23 22 23 22 19 15
10 12 14 16 18 20 20 19 20 21 21 21 22 23 24 24 24 24 24 23 24 25 27 28 30 32 34 36 37 37 37 36 35 34 32 32 31 31 31 30 27 26 24 23 22 20 18
12 12 13 15 17 18 18 19 20 21 23 23 24 25 26 26 26 25 25 26 27 28 28 30 31 32 33 36 37 38 37 37 37 36 34 33 33 33 33 31 29 27 26 26 25 26 25
16 15 16 17 17 16 16 16 17 18 20 21 21 22 23 23 24 25 25 26 27 28 29 29 29 31 32 33 35 37 38 38 37 36 36 35 34 35 34 33 31 29 29 30 30 31 32
21 20 20 18 17 17 17 17 18 17 18 19 21 21 22 23 23 24 25 25 26 27 28 29 29 31 32 34 34 35 36 36 35 36 36 36 35 35 35 34 35 34 33 34 35 35 35
25 25 24 23 21 20 20 20 20 20 21 21 21 22 23 23 24 24 24 25 25 25 26 26 28 29 30 30 33 32 32 34 35 35 35 36 35 34 34 35 36 36 35 36 37 39 40
31 30 29 28 27 26 24 24 24 24 23 23 24 24 24 25 25 25 25 26 25 25 27 27 25 24 27 28 27 29 31 32 33 33 34 36 35 35 36 37 37 38 39 41 43 44 45
35 34 34 32 32 31 30 28 28 28 27 27 27 27 27 28 28 27 28 28 29 30 31 25 25 26 27 29 31 31 34 35 35 36 37 37 37 37 37 39 39 40 42 44 46 47 49
35 36 37 36 35 35 34 33 33 32 32 32 32 32 31 32 31 31 32 34 35 36 30 30 29 28 28 30 33 34 36 37 38 38 38 39 40 40 41 43 44 45 46 48 51 51 52
38 38 39 39 38 38 37 37 36 36 36 36 36 36 36 38 36 37 38 38 39 36 34 33 33 33 33 35 37 38 39 39 39 40 42 44 45 45 45 46 46 47 48 49 54 54 53
41 41 41 41 42 41 42 42 41 41 40 40 40 40 40 42 42 42 44 46 43 40 40 38 39 40 40 41 42 42 44 44 44 44 46 47 49 48 48 48 49 49 50 49 52 53 53
47 47 47 46 44 43 44 44 45 45 45 45 44 44 44 45 45 47 48 48 46 44 44 44 45 46 46 44 46 47 48 48 47 46 48 50 51 50 51 50 50 49 49 50 50 53 54
48 48 49 50 51 51 52 52 51 49 48 48 47 48 47 49 49 52 52 50 47 46 46 47 48 49 49 49 50 50 51 49 47 47 48 49 51 52 53 52 51 53 53 51 50 53 54
54 54 54 54 52 51 51 50 51 51 53 54 55 54 51 52 54 54 53 50 49 47 48 49 50 50 51 49 51 53 51 49 47 48 49 50 54 57 54 55 55 55 53 51 51 51 54
60 57 55 54 52 49 49 50 54 54 54 57 57 55 55 56 58 57 56 55 55 55 53 53 54 54 53 55 57 55 54 52 53 51 52 52 57 58 59 58 56 54 51 51 53 55 57
65 63 61 60 57 54 54 54 53 54 52 56 56 56 55 57 57 59 60 55 55 54 56 57 57 58 59 61 59 62 62 61 58 56 56 57 60 62 63 60 58 58 55 56 57 59 56
68 67 66 59 62 62 60 57 56 56 56 57 57 56 56 56 53 53 56 56 56 59 60 60 62 61 60 63 63 65 65 63 62 61 60 60 62 62 62 63 64 63 60 58 59 59 62
67 66 64 63 62 58 58 58 58 57 58 61 62 60 58 57 55 54 55 55 58 57 58 58 59 59 61 63 66 64 63 65 65 65 64 65 65 65 64 64 66 68 65 65 64 60 57
67 65 65 63 62 62 64 60 57 58 61 65 64 63 60 59 57 56 54 54 55 56 57 56 55 56 58 52 50 53 55 55 57 58 59 60 61 62 62 60 59 63 56 57 54 56 54
76 72 68 68 73 69 63 61 58 52 54 59 65 64 65 65 66 63 61 59 59 59 59 54 53 55 48 49 49 50 49 48 50 53 54 55 56 55 57 56 61 56 51 55 54 52 51
74 70 70 77 70 69 68 65 62 60 59 63 62 62 63 66 65 64 60 60 61 60 61 61 58 55 54 54 55 54 53 52 52 53 52 53 54 56 57 61 60 58 57 50 54 60 57
81 80 72 76 81 78 67 63 58 62 62 66 71 69 69 68 69 66 67 66 65 64 63 61 59 60 60 59 58 58 61 60 60 58 57 59 60 61 63 67 71 61 55 58 59 74 61
69 70 71 80 83 78 73 67 61 55 71 74 76 74 72 72 74 73 73 70 71 70 70 66 64 64 64 63 64 64 65 66 67 67 64 65 66 69 68 72 77 68 65 67 75 76 71
72 70 71 71 70 74 81 78 75 76 72 75 75 75 72 67 74 74 72 68 71 75 71 71 68 69 67 67 64 64 66 67 72 71 70 72 73 74 76 78 81 73 74 78 77 80 81
63 61 63 64 63 67 69 70 72 74 78 78 86 82 84 86 81 76 73 64 65 68 65 65 65 66 67 70 70 66 69 68 67 72 69 76 76 76 80 83 83 82 82 84 86 89 90
Wind_Direction
186 194 199 204 208 210 212 214 214 213 215 211 209 211 211 207 209 209 208 209 207 204 205 206 208 210 213 214 217 219 220 221 224 227 232 237 240 240 241 243 243 244 246 247 247 246 249
194 200 202 203 207 207 207 211 213 214 214 213 214 213 216 212 212 208 205 205 205 206 208 211 212 214 214 216 219 222 223 224 228 232 236 240 243 245 245 245 247 250 255 255 252 251 250
197 205 203 208 216 208 207 204 207 210 213 214 216 217 218 214 208 205 203 205 207 208 213 216 217 218 219 220 222 224 227 228 231 235 238 241 243 246 248 248 249 256 258 258 257 258 256
207 203 203 205 209 206 200 200 205 211 216 215 217 216 211 207 204 205 205 208 211 214 218 220 222 224 224 224 225 227 228 232 235 237 239 243 245 247 248 249 252 257 260 263 262 258 257
207 210 212 216 215 209 210 209 216 214 212 212 209 209 207 209 208 208 210 212 217 220 223 224 224 226 227 227 228 230 232 233 236 239 242 244 246 247 248 251 256 258 261 261 258 253 247
216 215 215 219 222 216 217 214 212 212 213 211 211 210 212 216 218 218 218 220 224 228 229 229 229 230 230 231 232 232 234 235 238 240 242 245 247 247 249 253 256 259 257 255 249 246 248
230 222 219 216 221 223 224 221 221 220 218 219 218 217 218 220 221 222 225 226 227 229 231 232 232 233 230 232 233 235 236 238 239 242 244 245 247 247 249 253 257 256 253 250 248 250 256
240 234 226 219 215 218 217 220 222 222 222 221 221 222 222 223 224 226 228 231 233 233 233 234 235 235 234 236 238 239 241 243 244 246 246 247 246 247 249 251 251 251 253 254 255 258 261
247 244 240 235 229 224 219 221 220 222 225 225 221 220 221 222 225 227 229 231 232 234 236 236 237 239 237 237 238 239 241 243 246 247 249 249 249 249 250 251 251 256 259 260 261 262 264
247 245 244 240 238 236 235 231 225 222 221 223 228 228 226 226 226 227 228 229 229 231 233 235 234 236 239 239 240 241 243 244 244 245 247 248 249 250 251 252 255 258 261 265 268 268 269
250 249 249 246 242 240 238 237 238 235 227 226 226 226 228 230 231 230 231 233 233 233 236 237 236 236 238 240 238 240 240 242 245 245 246 248 249 250 251 254 256 259 264 268 271 273 274
252 251 249 249 250 249 249 246 246 244 242 238 234 233 232 233 234 235 237 238 237 237 237 238 236 237 237 237 239 239 239 243 245 247 249 252 254 254 256 257 260 264 268 269 270 273 275
252 251 250 249 248 248 247 247 248 247 248 247 245 242 239 239 240 240 239 241 241 241 242 244 241 240 239 239 240 242 242 244 246 248 250 251 252 253 255 258 262 265 267 269 270 272 275
254 251 249 248 247 246 245 245 244 245 246 247 248 248 248 246 243 243 245 245 245 246 246 248 248 245 243 242 242 244 244 244 246 248 250 250 252 255 257 260 262 262 264 268 273 274 274
252 253 253 251 250 249 248 247 247 246 246 246 247 247 247 249 249 248 249 249 251 249 248 249 250 251 249 249 250 248 248 250 252 253 255 257 257 258 259 260 261 263 265 268 269 270 272
251 249 249 249 249 249 251 250 249 247 247 247 247 248 249 250 249 251 250 253 254 254 254 253 254 254 253 252 253 254 254 254 256 258 258 260 262 260 260 260 261 265 266 267 269 272 273
253 255 256 256 254 251 249 247 246 247 249 249 248 248 246 248 249 249 250 253 254 256 255 255 255 257 257 256 255 254 255 256 257 258 259 263 263 264 263 264 265 265 265 266 269 270 273
253 254 252 249 251 255 256 256 256 255 254 254 251 250 250 252 253 252 253 256 257 257 257 257 257 258 260 260 258 257 257 259 259 258 260 262 265 266 265 265 265 266 267 269 269 271 270
259 258 260 262 263 254 254 258 260 260 257 254 254 253 253 252 253 255 255 256 257 258 258 257 257 257 258 259 261 261 262 261 263 262 264 263 264 268 267 266 268 269 268 266 266 266 267
258 258 257 260 258 258 257 259 260 259 257 260 259 259 259 259 259 258 256 256 258 259 259 259 260 260 259 259 263 265 263 261 259 261 261 262 263 264 269 271 268 266 265 264 263 265 271
257 255 254 253 253 256 255 257 261 262 261 256 258 259 258 256 255 256 255 256 255 256 258 258 258 260 262 261 259 259 262 265 264 262 261 263 263 264 265 266 267 268 267 268 268 270 268
251 251 252 253 252 251 252 254 252 250 253 258 258 259 261 261 259 259 259 261 262 261 259 260 260 259 259 261 263 265 265 265 267 267 265 264 265 263 263 263 265 267 268 267 267 272 275
249 248 243 239 240 242 241 241 242 248 253 256 257 257 255 257 259 261 264 266 264 259 259 259 259 257 260 265 262 258 258 259 260 261 263 263 264 264 265 263 262 263 269 271 274 273 277
250 246 242 236 239 239 239 237 238 238 247 250 252 255 254 255 258 261 263 259 257 258 258 254 252 256 258 254 253 254 256 257 256 259 260 261 262 263 265 263 257 268 268 268 272 275 280
237 240 241 244 237 230 234 236 236 235 236 241 245 248 252 254 252 252 253 250 249 250 253 254 253 253 251 249 251 252 250 250 252 253 256 260 261 263 262 264 267 264 268 273 273 268 271
256 250 245 235 233 235 235 233 234 237 238 245 245 245 245 244 249 248 243 245 247 248 249 252 251 251 250 252 252 252 252 253 251 252 254 257 259 260 261 260 262 274 266 266 267 266 274
254 255 256 256 251 238 237 235 229 235 237 235 236 237 236 237 242 244 245 245 243 245 247 246 247 248 247 248 249 250 252 253 251 254 255 254 255 257 259 261 264 267 268 267 269 279 281
258 256 255 254 253 258 257 261 247 241 233 229 221 223 228 232 231 237 237 245 246 247 251 248 249 244 244 245 249 251 254 256 257 257 256 257 258 259 261 263 265 267 267 266 273 275 282
254 257 256 254 252 253 253 255 260 262 265 247 234 247 248 250 239 241 238 239 242 245 252 247 249 252 247 250 251 252 259 259 260 259 256 259 261 266 267 271 273 273 274 274 273 275 281